Tracking 31027 objects as of 19-Jul-2025
HD Live streaming from Space Station
objects crossing your sky now

CZ-4 DEB

Track CZ-4 DEB now!
10-day predictions


NORAD ID: 29043
Int'l Code: 2004-035K
Perigee: 549.3 km
Apogee: 552.4 km
Inclination: 97.6 °
Period: 95.5 minutes
Semi major axis: 6921 km
RCS: 0.0201 m2 (small)
Launch date: September 8, 2004
Source: People's Republic of China (PRC)
Launch site: Taiyaun Space Center, China (TSC)

Note: This is SATELLITE DEBRIS
Your satellite tracking list
KL-BETA B
Track 1 satellite(s)




NASA's NSSDC Master Catalog

Two Line Element Set (TLE):
1 29043U 04035K   25199.30909896  .00001552  00000-0  10629-3 0  9994
2 29043  97.6015 220.9463 0002207 140.7630 219.3759 15.07542334 69067
Source of the keplerian elements: AFSPC